Location: Newark
(46.1292°N, 1.0086°W)
Time: 13:50:48
(UTC+00:00)

Vanguard 3 - Pass Details

Date: 22 November 2019
Orbit: 508 x 3263 km, 33.3° (Epoch: 06 December)

Event Time Altitude Azimuth Distance (km) Brightness Sun altitude
Rises 17:25:49 0° 272° (W) 7,234 13.5 -10.4°
Reaches altitude 10° 17:31:13 10° 267° (W) 6,160 13.0 -11.2°
Maximum altitude 17:47:56 41° 207° (SSW) 3,482 10.7 -14.0°
Drops below altitude 10° 17:59:36 10° 143° (SE) 4,347 10.6 -16.0°
Sets 18:02:41 0° 135° (SE) 5,002 10.9 -16.5°
